THOR ABLESTAR DEB, 672

Orbit data source: Space-Track

THOR ABLESTAR DEB, 672 is space debris in LEO originally from a launch on Sat, 28 Sep 1963 UTC launched from the Air Force Western Test Range (AFWTR). Debris objects in space refer to the collection of defunct objects orbiting the Earth. Examples of debris include non-operational satellites, rocket bodies, and fragments generated from explosions, collisions, or faulty payload assembly.

Loading next visibility...
Identifier
672, 1963-038D
Orbit
LEO
Country
Flag of USUS
Related business
Manufacturer
Unknown
Mission
Spacecraft
Bus & Motor
Unknown
Mass
Unknown
Launch date (UTC)
1963-09-28 (62 years ago)
Launch vehicle
Unknown
Launch site
Air Force Western Test Range (AFWTR)
Object type
Payload
Rocket body
Debris
Shape & HBR
Unknown shape, 0.1 m
Radar Cross Section
Small (<0.1 m²)

Expand to show TLE details & history
Last TLE update: 12 hours ago

TLE from 12 hours ago
0 THOR ABLESTAR DEB
1   672U 63038D   25289.11524071  .00000147  00000-0  16008-3 0  9992
2   672  89.9946 336.2586 0029022  85.8570 293.2834 13.68449340 68460
Epoch: 2025-10-16T02:45Z
TLE epoch observation values (Epoch: 2025-10-16T02:45:56.797Z)
Latitude
18.82934°
Longitude
-90.10582°
Altitude
999.209 km
Speed
7.358 km/s
True Right ascension
22h 25m 02s
True Declination
18° 43' 41"
Sunlit
Object was in full shadow at epoch
Visualization orbit readout
Latitude
Unknown
Longitude
Unknown
Altitude
Unknown
Speed
Unknown
Apparent Right ascension
Unknown
Apparent Declination
Unknown
Sunlit
N/A
Visualization observer readout
Local Sidereal Time
09:12:09
Azimuth
Unknown
Elevation
Unknown
Doppler factor
Unknown
Orbital elements
Apogee altitude
1,023.585 km
Perigee altitude
980.747 km
Semi-major axis
7,380.303 km
Eccentricity
0.0029
Inclination
89.9946°
RAAN
336.2586°
Arg. of periapsis
85.857°
True anomaly
292.97748°
Mean anomaly
293.2834°
Eccentric anomaly
293.13048°
Mean motion
3.4232 °/min
Orbital period
105.16 mins
BSTAR
0.00016008
Loading maneuver chart data...
Computing Atmospheric mass density...

Documentation

Showing up to 5 results
|